Location: Clanezzo
(45.7500°N, 9.6000°E)
Time: 12:59:03
(UTC+00:00)

FENGYUN 1C DEB - Visible Passes

Search period start: 06 December 2021 00:00
Search period end: 16 December 2021 00:00
Orbit: 633 x 1387 km, 99.1° (Epoch: 05 December)

Date Brightness Start Highest point End Pass type
(mag) Time Alt. Az. Time Alt. Az. Time Alt. Az.
06 Dec ? 02:41:16 10° E 02:45:14 18° NE 02:49:37 10° N visible
06 Dec ? 04:21:56 10° SSE 04:27:48 77° ENE 04:34:55 10° NNW visible
06 Dec ? 06:08:30 10° SW 06:12:44 20° W 06:17:30 10° NW visible
06 Dec ? 17:05:16 10° NNE 17:13:18 55° E 17:21:07 10° S visible
06 Dec ? 18:49:24 10° N 18:56:53 42° WNW 19:04:18 10° SW visible
06 Dec ? 20:36:21 10° NNW 20:38:44 12° NW 20:41:09 10° WNW visible
07 Dec ? 03:14:27 10° ESE 03:19:38 29° ENE 03:25:35 10° N visible
07 Dec ? 04:57:05 10° S 05:02:56 62° W 05:10:03 10° NNW visible
07 Dec ? 17:40:16 10° NNE 17:48:33 85° ESE 17:56:34 10° SSW visible
07 Dec ? 19:25:01 10° N 19:31:31 27° NW 19:37:59 10° WSW visible
08 Dec ? 02:10:15 10° ENE 02:12:20 11° NE 02:14:29 10° NNE visible
08 Dec ? 03:48:26 10° SE 03:54:15 47° ENE 04:01:11 10° N visible
08 Dec ? 05:32:54 10° SSW 05:38:23 35° W 05:44:50 10° NNW visible
08 Dec ? 16:32:01 10° NNE 16:39:23 35° E 16:46:27 10° SSE visible
08 Dec ? 18:15:29 10° N 18:23:35 63° WNW 18:31:24 10° SSW visible
08 Dec ? 20:00:58 10° N 20:05:56 18° NW 20:10:53 10° W visible
09 Dec ? 02:42:11 10° E 02:46:33 19° NE 02:51:21 10° N visible
09 Dec ? 04:23:01 10° SSE 04:29:08 80° ENE 04:36:32 10° NNW visible
09 Dec ? 06:09:38 10° SW 06:14:05 20° W 06:19:05 10° NW visible
09 Dec ? 17:06:44 10° NNE 17:14:51 56° E 17:22:33 10° S visible
09 Dec ? 18:50:54 10° N 18:58:23 41° WNW 19:05:40 10° SW visible
09 Dec ? 20:37:57 10° NNW 20:40:09 11° NW 20:42:21 10° WNW visible
10 Dec ? 03:15:29 10° ESE 03:20:59 30° ENE 03:27:15 10° N visible
10 Dec ? 04:58:12 10° S 05:04:17 62° W 05:11:38 10° NNW visible
10 Dec ? 17:41:45 10° NNE 17:50:05 87° ESE 17:57:57 10° SSW visible
10 Dec ? 19:26:32 10° N 19:32:58 27° NW 19:39:18 10° WSW visible
11 Dec ? 02:10:55 10° ENE 02:13:39 13° NE 02:16:30 10° NNE visible
11 Dec ? 03:49:30 10° SE 03:55:36 50° ENE 04:02:48 10° N visible
11 Dec ? 05:34:02 10° SSW 05:39:44 35° W 05:46:26 10° NNW visible
11 Dec ? 16:33:30 10° NNE 16:40:55 35° E 16:47:53 10° SSE visible
11 Dec ? 18:17:00 10° N 18:25:06 61° WNW 18:32:45 10° SW visible
11 Dec ? 20:02:31 10° N 20:07:22 17° NW 20:12:09 10° W visible
12 Dec ? 02:43:09 10° E 02:47:53 20° NE 02:53:04 10° N visible
12 Dec ? 04:24:08 10° SSE 04:30:30 82° ENE 04:38:09 10° NNW visible
12 Dec ? 06:10:49 10° SW 06:15:28 20° W 06:20:41 10° NW visible
12 Dec ? 17:08:15 10° NNE 17:16:23 57° E 17:23:55 10° S visible
12 Dec ? 18:52:26 10° N 18:59:52 39° WNW 19:06:58 10° SW visible
12 Dec ? 20:39:40 10° NNW 20:41:33 11° NW 20:43:26 10° NW visible
13 Dec ? 03:16:32 10° ESE 03:22:19 32° ENE 03:28:54 10° N visible
13 Dec ? 04:59:20 10° S 05:05:41 61° W 05:13:14 10° NNW visible
13 Dec ? 16:00:46 10° NE 16:06:43 22° E 16:12:21 10° SE visible
13 Dec ? 17:43:17 10° NNE 17:51:37 89° ESE 17:59:17 10° SSW visible
13 Dec ? 19:28:05 10° N 19:34:26 26° NW 19:40:34 10° WSW visible
14 Dec ? 02:11:44 10° ENE 02:15:00 14° NE 02:18:24 10° NNE visible
14 Dec ? 03:50:36 10° SE 03:56:59 52° ENE 04:04:26 10° N visible
14 Dec ? 05:35:13 10° SSW 05:41:09 35° W 05:48:01 10° NNW visible
14 Dec ? 16:35:01 10° NNE 16:42:26 36° E 16:49:16 10° SSE visible
14 Dec ? 18:18:32 10° N 18:26:36 59° WNW 18:34:03 10° SW visible
14 Dec ? 20:04:06 10° NNW 20:08:48 17° NW 20:13:23 10° W visible
15 Dec ? 02:44:11 10° E 02:49:15 22° NE 02:54:46 10° N visible
15 Dec ? 04:25:16 10° SSE 04:31:53 84° ENE 04:39:44 10° NNW visible
15 Dec ? 06:12:01 10° SW 06:16:52 21° W 06:22:15 10° NW visible
15 Dec ? 17:09:46 10° NNE 17:17:54 59° E 17:25:16 10° S visible
15 Dec ? 18:53:59 10° N 19:01:21 38° WNW 19:08:15 10° SW visible
15 Dec ? 20:41:35 10° NNW 20:42:57 10° NW 20:44:18 10° NW visible
